#timestamp,LO_Frequency,Hit,StdDev 
1508554815.4,286046995.6,N
1508554835.2,286046996.1,N
1508554855.1,286046995.2,N
1508554856.0,286046995.2,N
1508554875.8,286046994.1,N
1508554895.6,286046992.5,N
1508554915.5,286046991.4,N
1508554935.3,286046991.4,N
1508554955.1,286046990.0,Y
1508554975.9,286046990.4,P
1508554995.7,286046990.4,P
1508555015.5,286046989.7,P
1508555035.4,286046987.4,Y
1508555055.2,286046995.8,P
1508555075.0,286046996.3,N
1508555075.9,286046996.3,N
1508555095.8,286046998.0,N
1508555115.6,286046993.6,Y
1508555135.4,286046998.2,P
1508555155.3,286046996.7,N
1508555175.1,286046999.5,N
1508555176.0,286046999.5,N
1508555195.8,286046999.0,N
1508555215.7,286046995.1,Y
1508555235.5,286046999.2,P
1508555255.3,286046998.8,N
1508555275.2,286047000.8,N
1508555295.9,286046999.2,N
1508555315.7,286047001.0,N
1508555335.6,286046999.8,N
1508555355.4,286047000.0,N
1508555375.2,286047001.0,N
1508555395.1,286046999.9,N
1508555396.0,286046999.9,N
1508555415.8,286046998.1,N
1508555435.6,286046999.6,N
1508555455.5,286046998.8,N
1508555475.3,286047001.2,N
1508555495.1,286046999.0,N
1508555515.9,286046999.2,N
1508555535.7,286046998.8,N
1508555555.5,286046999.3,N
1508555575.4,286047002.8,Y
1508555595.2,286046999.9,P
1508555615.0,286047004.2,P
1508555615.9,286047004.2,N
1508555635.8,286047003.3,N
1508555655.6,286047003.2,N
1508555675.4,286047003.2,N
1508555695.2,286047004.1,N
1508555715.1,286046998.5,N
1508555716.0,286046998.5,N
1508555735.8,286047004.8,N
1508555755.7,286047013.2,Y
1508555775.5,286047013.7,P
1508555795.3,286047012.3,N
1508555815.1,286047010.9,N
1508555835.9,286047009.5,N
1508555855.7,286047012.8,Y
1508555875.5,286047006.2,P
1508555895.4,286047008.6,P
1508555915.2,286047010.2,P
1508555935.1,286047007.9,Y
1508555936.0,286047007.9,P
1508555955.8,286047000.4,N
1508555975.6,286047002.5,N
1508555995.5,286047001.8,N
1508556015.3,286047004.1,N
1508556035.1,286047005.5,N
1508556055.8,286047004.8,N
1508556075.7,286047005.3,N
1508556095.5,286047003.7,N
1508556115.3,286046999.3,N
1508556135.2,286046999.5,N
1508556155.0,286046997.8,N
1508556155.9,286046997.8,N
1508556175.7,286046997.7,N
1508556195.6,286046997.0,N
1508556215.4,286046994.9,N
1508556235.2,286046999.6,N
1508556255.1,286046997.1,N
1508556256.0,286046997.1,N
1508556275.8,286047002.1,N
1508556295.6,286047002.8,N
1508556315.5,286046998.2,N
1508556335.3,286046997.1,N
1508556355.1,286046999.3,N
1508556375.9,286046999.3,N
1508556395.7,286046997.1,N
1508556415.5,286046998.4,N
1508556435.4,286047000.6,N
1508556455.2,286047000.2,N
1508556475.0,286047000.0,N
1508556475.9,286047000.0,N
1508556495.8,286047001.6,N
1508556515.6,286047004.4,N
1508556535.4,286047002.6,N
1508556555.2,286046997.0,N
1508556575.1,286046996.5,N
1508556576.0,286046996.5,N
1508556595.8,286046997.4,N
1508556615.6,286046998.5,N
1508556635.5,286046998.8,N
1508556655.3,286046999.2,N
1508556675.1,286046995.6,N
1508556695.9,286046997.4,N
1508556715.7,286046997.1,N
1508556735.5,286046997.6,N
1508556755.4,286046994.7,N
1508556775.2,286046988.2,Y
1508556795.0,286046986.4,P
1508556795.9,286046986.4,N
1508556815.8,286046984.6,N
1508556835.6,286046984.4,N
1508556855.4,286046987.6,N
1508556875.3,286046985.0,Y
1508556895.1,286046995.9,P
1508556915.8,286046993.9,N
1508556935.7,286046995.8,N
1508556955.5,286046995.4,N
1508556975.3,286046993.8,N
1508556995.2,286046996.4,N
1508557015.9,286046993.4,N
1508557035.7,286046994.1,N
1508557055.6,286046995.7,N
1508557075.4,286046997.7,N
1508557095.2,286046997.4,N
1508557115.1,286046993.5,N
1508557116.0,286046993.5,N
1508557135.8,286046993.9,N
1508557155.6,286046993.8,N
1508557175.5,286046997.6,N
1508557195.3,286046996.5,N
1508557215.1,286047000.7,N
1508557235.9,286047000.0,N
1508557255.7,286047001.0,N
1508557275.5,286047000.5,N
1508557295.3,286046999.5,N
1508557315.2,286046997.4,N
1508557335.0,286046997.6,N
1508557335.9,286046997.6,N
1508557355.7,286046997.3,N
1508557375.6,286046997.2,N
1508557395.4,286046999.1,N
1508557415.2,286046999.7,N
1508557435.1,286047000.8,N
1508557436.0,286047000.8,N
1508557455.8,286047001.1,N
1508557475.6,286046998.2,N
1508557495.5,286046996.7,N
1508557515.3,286046999.3,N
1508557535.1,286046998.9,N
1508557555.9,286046996.0,N
1508557575.7,286046998.0,N
1508557595.5,286047000.0,N
1508557615.4,286047001.8,N
1508557635.2,286047008.9,Y
1508557655.0,286047013.0,P
1508557655.9,286047013.0,N
1508557675.8,286047014.1,N
1508557695.6,286047018.6,N
1508557715.4,286047015.8,N
1508557735.3,286047015.1,N
1508557755.1,286047017.0,N
1508557756.0,286047017.0,N
1508557775.8,286047016.6,N
1508557795.7,286047017.8,Y
1508557815.5,286047005.9,P
1508557835.3,286047005.7,N
1508557855.2,286047006.1,N
1508557875.9,286047009.2,N
1508557895.7,286047001.7,N
1508557915.6,286047001.9,N
1508557935.4,286047000.3,N
1508557955.2,286046998.4,N
1508557975.1,286046996.6,N
1508557976.0,286046996.6,N
1508557995.8,286046997.5,N
1508558015.6,286046995.3,N
1508558035.5,286046997.3,N
1508558055.3,286046996.7,N
1508558075.1,286046993.3,N
1508558095.9,286046996.6,N
1508558115.7,286046995.3,N
1508558135.5,286046995.9,N
1508558155.3,286046999.6,N
1508558175.2,286046996.6,N
1508558195.0,286046998.4,N
1508558195.9,286046998.4,N
1508558215.7,286047001.7,N
1508558235.6,286047003.9,N
1508558255.4,286047002.5,N
1508558275.2,286047001.0,N
1508558295.1,286046999.5,N
1508558296.0,286046999.5,N
1508558315.8,286046995.4,N
1508558335.6,286046998.1,N
1508558355.5,286046999.4,N
1508558375.3,286046996.6,N
1508558395.1,286046997.1,N
